Location: Ajisawe
(8.4333°N, 4.3833°E)
Time: 20:47:06
(UTC+00:00)

STARLINK-1146 - Pass Details

Date: 07 October 2020
Orbit: 549 x 550 km, 53.0° (Epoch: 29 October)

Event Time Altitude Azimuth Distance (km) Brightness Sun altitude
Rises 19:07:18 0° 315° (NW) 2,703 7.7 -24.8°
Reaches altitude 10° 19:09:36 10° 309° (NW) 1,811 6.9 -25.4°
Maximum altitude 19:13:31 44° 236° (WSW) 766 4.6 -26.4°
Enters shadow 19:13:48 43° 224° (SW) 775 4.6 -26.4°
